Regional Weather Roundup
Issued by NWS Newport/Morehead, NC

Current Version | Previous Version | Text Only | Print | Product List | Glossary On
Versions: 1 2 3 4 5 6 7 8 9 10 11 12 13 14 15 16 17 18 19 20 21 22 23 24 25 26 27 28 29 30 31 32 33 34 35 36 37 38 39 40 41 42 43 44 45 46 47 48 49 50
000 ASUS42 KMHX 011010 RWRMHX WEATHER ROUNDUP FOR EASTERN NORTH CAROLINA NATIONAL WEATHER SERVICE NEWPORT/MOREHEAD CITY NC 600 AM EDT MON SEP 01 2014 NOTE: "FAIR" INDICATES FEW OR NO CLOUDS BELOW 12,000 FEET WITH NO SIGNIFICANT WEATHER AND/OR OBSTRUCTIONS TO VISIBILITY NCZ015>017-031-032-045>047-102-103-011100- NORTH COAST CITY SKY/WX TMP DP RH WIND PRES REMARKS EDENTON CLOUDY 77 75 95 SW8 30.10R ELIZABETH CITY MOCLDY 77 75 93 SW7 30.09S KITTY HAWK MOSUNNY 78 75 91 SW5 30.09S MANTEO MOCLDY 78 74 90 SW7 30.11R $$ NCZ045>047-081-094-103-104-011100- CENTRAL COAST CITY SKY/WX TMP DP RH WIND PRES REMARKS FRISCO CLEAR 79 75 87 W10 30.10R SWANQUARTER N/A 81 N/A N/A SW8 30.06S $$ NCZ095-097-098-100-101-011100- SOUTHERN COAST CITY SKY/WX TMP DP RH WIND PRES REMARKS BEAUFORT MOCLDY 81 77 88 SW8 30.10S CEDAR ISLAND N/A 79 N/A N/A SW2 30.15S JACKSONVILLE CLEAR 74 73 97 S3 30.10R NEWPORT NOT AVBL PINEY ISLAND SUNNY 77 76 96 S5 30.10R WILMINGTON CLEAR 75 74 96 CALM 30.10R $$ NCZ011>013-027>030-043-044-078>080-089-090>093-098-011100- COASTAL PLAIN CITY SKY/WX TMP DP RH WIND PRES REMARKS AHOSKIE PTCLDY 73 72 95 CALM 30.09R CLINTON PTCLDY 73 73 100 CALM 30.10R ELIZABETHTOWN PTCLDY 74 74 100 CALM 30.10R GOLDSBORO PTCLDY 75 74 99 SE2 30.08R GREENVILLE PTCLDY 73 73 100 CALM 30.11S HAVELOCK CLEAR 77 75 93 SW3 30.11R KENANSVILLE PTCLDY 73 72 96 CALM 30.11R KINSTON PTCLDY 74 73 97 CALM 30.10S NEW BERN CLEAR 77 74 90 CALM 30.11R RICHLANDS MOCLDY 72 70 94 CALM 30.10S VSB 1/2 ROANOKE RAPIDS NOT AVBL ROCKY MOUNT CLOUDY 75 73 93 S3 30.10R WASHINGTON PTCLDY 75 73 95 SW3 30.10S WHITEVILLE CLEAR 74 73 94 CALM 30.09R $$ AMZ130-135-150-152-154-156-158-170-250-252-270-ANZ085-086-088-633-658-670-011100- MARINE OBSERVATIONS STATION/POSITION TIME TEMP WIND PRES WAVE SWELL AIR SEA DIR/SP/G HT/PER HT/PER (UTC) (F) (DEG/KT/KT) (MB) (FT/S) (FT/S) CHESAPEAKE LIGHT 0900 78 230/ 18/ 18 1018.4 BUOY 44014 1000 77 76 200/ 10/ 12 1018.5 3/ 8 3/ 8 DUCK 1000 79 75 220/ 8/ 11 1018.3 2E DUCK 1000 N/A 2/ 9 OREGON INLET 1000 80 82 210/ 11/ 14 1019.3 BUOY 44095 1000 78 N/A 3/ 8 20E OREGON INLET NOT AVBL HATTERAS CG 1000 81 84 230/ 8/ 11 1019.8 DIAMOND BUOY 1000 81 200/ 16/ 17 1019.1 3/ 9 2/ 9 CAPE LOOKOUT 0900 80 210/ 8/ 12 1019.1 BEAUFORT LAB 1000 81 83 210/ 7/ 10 1018.8 30 SE NEW RIVER 1000 81 83 210/ 12/ 14 1019.6 3/ 4 2/ 9 5 SE WRIGHTSVILL 0900 78 82 240/ 12/ 12 N/A BUOY 41002 0940 80 83 180/ 4/ 6 1021.0 3/ 9 3/ 9 BUOY 41004 1000 82 83 220/ 8/ 10 1018.4 3/ 9 3/ 9 $$

USA.gov is the U.S. government's official web portal to all federal, state and local government web resources and services.